Retour au catalogue

COSMOS 397 DEB

ActifLEO
NORAD 5014·DEBRIS·🇷🇺 Russia

Lancé Feb 25, 1971 depuis Baikonur Cosmodrome

Loading…

Prochains Passages (prochaines 24 heures)

TLE

FraisSource: Space-Track

Époque: Sep 13, 2026, 23:48 UTC

1 05014U 71015H   26256.99234991  .00001985  00000-0  49424-3 0  9990
2 05014  65.5762  93.9263 0567235 220.2473 135.5283 13.86495909688826

Suivez COSMOS 397 DEB en temps réel avec AllMySat

Download on the App Store